軌道要素
Epoch 2023 Feb. 25.0 TT = JDT 2460000.5
T 2023 Jan. 31.59204 TT Rudenko
q 1.6441549 (2000.0) P Q
n 0.00527234 Peri. 44.06153 +0.63807656 -0.76773613
a 32.6939155 Node 352.94313 -0.76945490 -0.63300137
e 0.9497107 Incl. 151.48595 +0.02823929 +0.09945098
P 187
>From 571 observations 2022 Aug. 27-2023 May 28, mean residual 0".5.
|